Theta_e
294 294 293 293 293 292 292 292 291 291 291 291 291 290 290 290 290 289 289 288 288 287 287 287 286 286 285 285 285 285 284 283 282 282 281 281 280 280 279 278 278 278 277 277 277 276 276 276 276 276 276 276 275 275 275 275 275 275 275 276 276 276 276 277 277 277 277 277 277 276 276 275 275 275 275 275 275 275 275 275 276 276 277 277 277
294 293 293 292 292 292 291 291 291 291 291 291 290 290 290 290 289 289 288 288 288 287 287 286 286 285 285 285 285 285 284 283 282 282 281 280 280 279 279 278 278 278 277 276 276 276 276 276 275 275 275 274 274 274 274 274 274 274 274 274 275 275 275 275 275 276 276 275 275 275 275 275 275 275 275 275 275 275 275 275 275 276 276 276 276
293 293 293 292 292 291 291 291 290 290 290 290 290 290 289 289 289 289 288 287 287 287 287 286 285 285 285 285 285 284 283 282 282 281 280 280 279 279 278 278 278 277 276 276 275 275 275 275 275 274 274 273 273 273 273 273 273 273 273 273 274 274 274 274 274 274 274 274 274 274 274 274 274 275 275 275 275 275 275 275 275 275 275 275 276
293 293 292 292 291 291 290 290 290 290 290 290 290 289 289 289 288 288 288 287 287 286 286 285 285 284 285 285 284 284 283 282 281 280 280 280 279 279 278 278 278 277 276 275 275 275 274 274 274 273 273 272 272 272 272 272 273 273 273 273 273 273 273 273 273 273 273 274 274 274 274 274 274 275 275 275 275 275 275 275 275 275 275 275 276
293 293 292 292 291 291 290 290 290 289 289 289 289 289 288 288 287 287 287 286 286 285 285 284 284 284 285 285 284 283 282 281 281 280 280 279 279 279 278 278 277 276 275 274 274 274 274 273 273 273 272 272 272 272 272 272 272 272 273 273 273 273 273 273 273 273 273 274 274 274 274 275 275 275 275 275 275 275 275 275 275 275 275 276 276
293 292 292 291 291 290 290 290 289 289 289 288 288 287 287 287 287 286 286 286 285 285 284 284 284 284 284 284 283 282 282 281 280 280 280 279 279 278 278 277 276 275 274 274 274 273 273 273 273 272 272 272 272 272 272 273 273 273 273 273 273 273 273 273 273 273 273 274 274 274 274 275 275 275 275 275 275 275 275 275 276 276 276 276 276
292 292 291 291 290 290 289 289 289 289 288 288 287 286 286 286 286 285 285 285 285 284 283 283 283 283 283 283 282 281 281 280 280 280 279 279 278 278 277 277 275 274 274 273 273 273 272 273 273 273 273 273 273 273 273 273 273 273 273 273 273 274 273 274 274 274 274 274 274 275 274 275 275 275 275 276 276 276 276 276 276 276 276 276 276
292 291 291 290 290 289 289 289 288 288 288 287 286 285 285 285 285 285 284 284 284 284 283 282 282 282 281 281 281 280 280 280 280 279 279 279 278 277 277 276 274 273 273 272 272 272 273 273 273 273 273 273 273 273 273 273 273 274 274 274 274 274 274 274 274 274 274 275 275 275 275 275 275 276 276 276 276 276 276 276 276 276 276 277 277
291 290 290 290 289 289 289 288 287 287 287 286 285 284 284 284 284 284 284 283 283 283 282 282 281 280 280 280 280 279 280 280 280 279 279 278 278 277 276 275 273 272 272 272 273 273 273 274 274 274 274 274 274 275 275 275 275 276 276 276 276 276 276 276 275 275 275 275 275 275 275 275 276 276 276 276 276 277 277 276 277 277 277 277 277
290 290 290 289 289 289 288 287 287 286 286 285 284 284 283 283 283 283 283 282 282 281 281 280 280 280 279 279 279 279 279 279 279 279 278 278 277 276 275 274 273 272 272 273 274 274 274 274 274 274 275 275 275 276 276 276 276 277 277 277 277 277 277 277 277 277 276 276 276 276 276 276 276 277 277 277 277 277 277 277 277 277 277 278 278
290 290 289 289 289 288 287 287 286 285 284 284 283 283 282 282 282 282 281 281 280 280 280 279 279 279 279 279 279 279 279 279 279 278 277 277 276 275 274 273 273 273 274 274 274 275 275 275 275 275 275 275 275 275 275 276 276 276 277 277 277 277 277 277 277 277 277 277 277 277 277 277 277 277 277 277 277 277 277 277 277 277 278 278 278
289 289 289 288 288 287 287 286 285 284 284 283 282 282 281 281 281 280 280 280 279 279 279 279 278 278 278 278 279 279 279 279 278 278 277 276 276 276 275 274 274 274 274 275 275 275 275 275 275 275 275 275 275 275 275 275 275 276 276 276 276 277 277 277 277 278 278 278 278 278 278 278 278 277 277 277 277 277 277 277 277 277 278 278 278
289 288 288 288 287 287 286 285 284 283 283 282 281 281 280 280 280 280 279 279 278 278 277 277 277 276 277 278 278 279 279 278 278 277 276 276 276 276 276 275 275 275 275 275 275 275 275 275 274 274 274 274 275 275 275 275 275 275 275 276 276 276 277 277 277 278 278 278 278 278 278 278 277 277 277 277 277 277 277 277 277 277 278 278 278
288 288 287 287 286 286 285 284 283 282 282 281 280 280 279 279 279 279 278 277 277 276 276 276 276 276 277 278 278 278 278 278 277 276 276 276 277 277 276 275 275 275 275 275 275 275 274 274 274 274 274 274 274 274 274 275 275 275 276 276 276 277 277 277 277 277 277 277 277 277 277 277 277 277 277 277 277 277 277 277 277 277 277 277 277
287 287 286 286 285 285 284 283 282 281 281 280 279 279 278 278 277 277 277 276 276 275 275 275 275 276 277 277 277 278 277 277 276 275 275 276 276 276 276 275 275 275 275 275 274 274 274 274 274 274 274 274 274 274 275 275 276 276 276 277 277 276 276 276 276 276 276 276 277 277 277 277 277 277 277 277 277 277 277 277 277 277 277 277 278
286 286 285 285 285 284 283 282 281 280 279 279 278 277 277 277 276 276 275 275 274 274 274 274 275 276 276 277 277 277 277 276 275 275 275 275 276 276 276 275 275 275 274 274 273 273 273 273 273 274 274 274 274 275 275 276 276 276 276 276 276 276 276 276 276 276 277 277 277 277 277 277 277 277 278 278 278 278 278 278 278 278 278 278 278
286 285 285 284 284 283 283 282 280 279 278 277 277 277 276 276 275 275 274 274 273 273 273 274 275 276 277 277 277 277 276 275 274 274 274 275 276 275 275 275 275 274 274 273 273 273 273 273 274 274 274 274 274 275 275 276 276 276 276 276 276 276 276 276 276 276 276 276 276 276 276 277 277 277 278 278 278 278 278 279 279 279 279 278 278
285 285 285 284 283 283 282 281 280 279 278 277 277 276 276 275 275 274 274 273 273 273 273 274 275 276 277 277 277 277 276 274 274 274 274 275 275 275 274 274 274 274 273 273 273 273 273 274 274 274 274 274 274 275 275 275 276 276 276 276 276 276 276 275 274 274 274 275 275 275 275 275 275 275 275 275 276 276 276 277 278 279 279 279 279
286 285 285 284 283 282 281 281 280 279 277 277 277 276 275 275 274 274 274 274 273 273 274 274 274 275 276 277 276 276 275 274 273 273 274 274 275 275 274 274 273 273 273 273 273 274 274 274 274 274 274 274 274 274 275 276 276 276 276 276 275 275 274 273 273 274 274 274 274 273 273 272 272 272 272 273 274 274 275 276 276 277 279 279 279
286 285 284 284 282 282 281 280 280 278 277 277 276 276 275 274 273 273 273 273 273 273 273 274 274 274 275 275 275 275 274 273 273 273 274 274 275 275 274 274 273 273 273 273 274 274 274 274 273 273 273 273 274 274 275 276 276 276 275 275 274 273 273 273 274 274 273 271 271 270 270 270 270 271 271 272 273 274 275 276 277 277 278 279 279
285 284 284 283 282 281 280 280 279 278 277 277 276 275 274 274 273 272 272 272 272 272 272 272 272 273 273 274 274 274 273 273 273 273 273 274 275 275 274 273 273 273 273 274 274 274 274 273 272 272 272 273 274 275 275 275 275 274 274 273 273 273 273 274 273 271 270 269 269 269 269 269 270 270 271 272 273 274 275 276 278 279 279 279 280
285 284 283 282 281 280 280 279 278 277 276 276 275 274 273 273 272 272 272 272 271 271 271 271 271 271 271 272 273 273 273 273 273 273 273 274 275 275 274 274 273 274 274 274 274 274 273 272 271 271 272 273 274 274 274 274 274 273 272 272 272 273 273 272 270 269 268 268 268 269 269 270 270 270 271 271 272 273 273 275 276 277 277 278 279
284 284 282 281 280 279 279 278 277 276 276 275 274 273 272 272 272 271 271 271 271 270 270 270 270 269 269 270 271 271 272 272 272 272 273 274 274 274 274 274 274 275 274 274 274 273 272 271 271 271 273 273 273 273 273 273 272 271 271 272 272 272 271 269 268 267 268 268 268 269 269 270 270 270 271 271 271 272 272 273 273 274 274 275 277
284 282 281 280 279 278 278 277 276 276 275 274 274 273 272 271 271 271 271 271 271 270 269 269 269 269 269 269 270 270 271 271 272 272 272 273 274 274 274 275 275 275 274 273 273 272 271 271 271 272 272 272 272 271 271 270 270 270 271 271 271 269 268 267 267 267 267 268 269 269 269 270 270 270 271 271 271 271 271 272 272 273 273 274 276
282 281 280 279 278 277 277 276 275 275 274 274 273 272 271 270 270 270 270 270 270 269 269 269 269 269 269 270 270 270 270 271 271 272 272 273 273 274 274 274 274 274 273 273 272 271 271 272 272 271 271 270 270 269 269 268 269 269 269 269 268 267 266 266 267 267 268 268 269 269 269 269 270 270 270 270 271 271 271 271 272 272 273 274 276
280 279 278 277 277 276 275 274 274 273 273 273 272 272 271 270 270 270 270 270 270 269 269 269 269 270 270 270 270 270 270 270 270 271 271 272 273 273 274 273 273 273 273 272 271 271 271 271 270 269 268 268 268 267 267 267 267 267 267 267 266 266 266 266 266 267 268 268 268 269 269 269 269 270 270 270 271 271 271 271 272 273 273 274 275
279 277 276 276 275 275 274 273 272 272 272 272 272 271 270 270 270 269 269 269 269 269 269 269 270 270 270 270 270 270 270 270 269 270 271 271 272 272 272 272 272 272 271 271 270 270 270 269 269 268 267 267 267 267 266 266 266 265 265 265 265 265 266 266 267 267 268 268 268 268 269 269 269 270 270 270 271 271 271 271 272 272 272 273 274
278 276 275 274 273 273 273 272 271 271 271 271 271 270 270 269 269 269 270 270 270 270 270 270 270 270 270 270 270 269 269 269 269 270 271 271 271 271 271 271 271 271 270 270 270 270 269 269 268 268 268 267 267 267 266 265 265 265 264 265 265 265 265 266 266 267 267 267 268 268 268 269 269 269 270 270 271 271 271 271 271 271 271 272 273
277 276 274 273 272 271 271 271 270 270 270 270 270 270 269 269 269 270 270 271 272 272 272 271 271 271 271 270 270 269 269 269 270 271 271 271 272 272 271 271 271 271 270 270 270 269 268 268 268 267 266 266 265 265 265 264 264 264 264 264 265 265 265 266 266 266 267 267 267 268 268 269 269 270 270 270 270 270 270 270 271 271 271 272 272
275 274 272 271 271 270 270 270 270 270 270 269 269 269 269 269 270 270 271 272 272 273 273 273 272 272 271 270 270 271 270 270 271 272 272 272 272 272 272 271 271 271 270 270 269 268 267 267 266 265 264 264 263 263 263 263 263 263 264 264 264 264 265 265 266 266 267 267 267 268 268 269 269 270 270 270 270 270 270 270 270 270 270 271 271
274 273 272 271 270 270 270 269 269 269 269 269 268 268 269 269 270 271 271 272 272 272 273 273 272 272 272 271 270 271 271 271 272 272 273 273 273 272 272 271 271 271 269 268 267 267 267 266 265 264 263 263 263 263 262 262 262 263 263 263 264 264 265 265 265 266 266 267 267 268 268 269 270 270 270 270 270 270 270 270 270 270 270 270 271
275 273 272 271 270 270 269 269 268 269 269 268 268 269 269 270 271 271 271 272 273 273 273 272 272 271 271 271 270 271 272 272 273 273 273 272 272 271 271 271 270 269 268 267 267 267 266 265 264 264 263 262 262 262 262 262 262 262 263 263 263 264 264 265 265 266 266 267 267 268 269 269 270 270 270 270 270 270 270 270 269 269 270 270 270
276 274 272 271 270 269 269 269 268 269 269 268 268 269 270 271 271 272 273 274 274 274 273 273 272 272 271 271 271 271 272 273 273 273 272 272 271 271 270 270 269 268 267 267 267 266 265 264 264 263 263 262 262 262 261 261 262 262 262 262 263 263 264 264 265 265 266 267 268 268 269 269 270 270 270 270 270 270 270 269 269 269 269 269 270
277 275 273 271 270 269 269 269 268 269 269 268 269 270 271 271 272 273 274 274 274 274 274 273 273 272 272 271 271 272 272 273 272 272 271 271 270 270 269 268 267 267 267 267 267 266 265 264 264 263 262 262 262 261 261 261 261 261 262 262 263 263 264 264 265 265 266 267 268 268 269 269 270 270 270 270 270 270 269 269 269 269 269 269 270
277 275 274 272 270 270 269 268 268 269 269 269 270 271 271 271 272 273 273 274 273 273 274 273 273 272 272 271 272 272 273 272 272 271 271 270 269 268 267 267 266 266 266 266 266 266 265 264 263 263 262 262 261 261 260 260 260 260 261 262 262 263 263 264 264 266 267 267 268 268 269 269 270 270 270 270 270 269 269 269 269 269 269 269 269
276 274 273 271 270 270 269 268 268 268 269 269 270 271 271 271 272 273 273 273 273 272 272 273 273 273 272 272 272 272 272 272 271 271 270 269 268 267 266 266 266 266 266 266 266 265 264 263 263 263 262 261 260 260 260 260 260 260 261 261 262 262 263 264 265 266 267 267 267 268 269 270 270 270 270 269 269 269 269 269 269 269 269 269 269
275 274 272 271 270 270 269 268 268 268 269 269 270 271 271 271 272 272 272 271 271 270 270 271 272 272 271 272 272 272 272 271 270 269 268 267 266 266 266 266 266 266 266 265 265 264 264 264 263 262 261 260 260 260 259 259 260 260 260 261 261 262 263 264 265 266 266 267 267 268 269 270 270 270 269 269 269 269 269 269 269 269 269 269 269
275 274 273 271 270 269 269 268 268 269 269 270 270 271 271 271 271 271 270 269 269 268 269 269 270 269 269 270 271 271 271 270 268 267 266 265 265 265 265 265 265 265 265 265 264 264 265 264 263 262 262 261 261 260 260 259 259 260 260 261 261 262 263 264 265 266 266 267 268 268 269 270 270 269 269 269 269 269 269 269 269 269 269 269 269
274 273 272 271 270 269 268 268 269 269 269 270 270 270 270 270 270 269 268 268 267 267 267 267 267 267 267 268 269 269 268 267 266 265 264 264 264 265 265 265 265 264 264 264 264 264 264 264 263 263 263 262 262 261 260 260 260 260 260 261 261 262 263 264 265 266 266 267 268 269 270 270 270 269 269 269 269 269 269 269 269 268 269 269 269
273 272 271 271 270 269 269 268 269 269 269 269 270 269 269 268 269 268 267 266 266 265 266 265 265 265 266 267 267 267 267 265 265 264 264 264 264 264 264 264 264 264 263 263 264 264 264 263 263 263 263 263 262 261 261 260 260 260 260 261 261 262 263 264 265 266 266 267 268 269 270 270 269 269 269 268 269 269 269 269 268 268 268 268 269
272 271 270 270 270 269 269 269 269 269 269 269 269 268 268 268 267 267 266 265 264 264 264 264 264 264 265 266 266 266 266 265 264 264 264 264 264 264 264 264 263 263 263 263 263 263 263 263 263 263 263 263 262 262 261 261 261 261 261 261 262 263 263 264 265 266 266 267 268 269 270 270 269 269 268 268 268 268 268 268 268 268 268 268 269
271 270 270 270 270 269 269 269 269 269 268 268 268 267 267 266 266 266 265 264 263 263 263 262 262 263 264 265 266 266 266 265 265 264 264 264 264 264 264 263 263 263 263 263 263 263 263 263 264 263 263 263 262 262 262 262 261 261 261 261 262 263 263 264 265 266 266 267 269 269 270 270 269 268 268 268 268 268 268 268 268 268 268 268 268
271 270 270 269 269 269 268 268 268 267 267 267 267 266 266 265 265 265 264 263 263 262 262 261 262 263 265 266 266 265 264 264 264 264 263 263 263 263 263 262 262 263 263 263 263 263 263 264 264 263 263 263 263 262 262 262 262 262 261 261 262 263 263 264 265 266 267 267 269 270 270 269 268 268 268 268 268 268 268 268 268 268 268 268 268
270 270 269 269 269 268 268 267 267 266 266 266 265 265 265 264 264 263 263 262 262 261 261 261 262 264 266 267 266 264 264 264 264 264 263 263 263 263 262 262 262 262 262 262 263 263 263 263 264 263 263 263 263 263 264 263 263 263 262 262 262 263 263 264 265 266 267 267 269 270 270 269 268 268 267 268 268 268 268 268 268 268 268 268 268
270 269 269 268 268 267 267 266 266 266 265 265 264 264 264 263 263 263 262 261 261 261 261 261 262 263 264 265 264 263 263 263 263 263 263 263 262 262 262 262 262 262 262 262 263 263 263 263 263 263 263 263 264 264 264 264 264 264 263 263 262 263 264 265 265 266 267 268 269 270 269 268 268 267 267 267 268 268 268 268 268 268 268 268 268
269 268 268 267 266 266 266 265 265 264 264 264 263 263 263 262 262 262 261 261 260 260 260 261 261 262 263 263 263 262 263 263 262 262 262 262 262 262 262 262 262 262 262 262 262 263 263 262 262 263 263 263 264 264 265 264 264 264 264 264 264 264 265 265 266 267 268 269 270 270 269 268 267 267 267 267 267 268 268 268 268 268 268 268 268
268 267 267 266 266 265 265 264 264 263 263 263 262 262 262 262 261 261 261 260 260 260 259 260 260 261 261 262 262 262 262 262 262 262 262 262 262 262 262 262 262 262 262 262 262 262 262 262 262 262 263 263 264 264 264 264 264 264 265 265 265 265 265 266 267 267 269 270 270 270 269 268 267 267 267 267 267 267 268 268 268 268 268 268 268
267 266 266 265 265 264 263 263 263 262 262 262 261 261 261 260 260 260 260 259 259 259 259 259 259 260 261 261 262 262 262 262 262 262 262 263 263 262 262 262 262 262 262 262 262 262 262 262 262 262 263 263 264 264 264 264 264 264 265 265 265 265 266 267 267 269 270 270 270 269 268 268 267 267 267 267 267 267 267 267 268 268 268 268 268
266 265 265 264 264 263 263 262 262 262 261 261 260 260 260 259 259 259 259 259 259 259 259 260 260 260 261 261 261 262 262 262 262 263 263 263 263 262 262 262 262 262 262 262 262 262 262 262 262 262 263 263 263 264 264 264 264 264 264 265 265 265 266 267 268 269 270 270 270 269 268 268 267 267 267 267 267 267 267 267 267 267 267 268 268
265 264 264 263 263 262 262 262 262 261 260 260 260 259 259 259 258 258 259 259 259 259 259 260 261 261 261 262 262 262 262 262 263 263 263 263 262 262 262 262 262 262 262 263 262 262 262 262 262 263 263 263 263 264 264 264 264 264 264 265 265 265 266 267 269 270 270 270 269 269 268 268 267 267 267 267 267 267 267 267 267 267 267 267 267
263 263 263 262 262 262 261 261 260 260 260 259 259 259 258 258 258 258 259 259 259 259 260 260 261 261 262 262 262 262 262 262 262 263 263 262 262 262 261 262 262 262 263 263 262 262 262 262 262 263 263 263 263 264 264 264 264 264 264 265 265 265 266 268 269 270 270 270 269 269 268 268 267 267 267 266 266 267 267 267 267 267 267 267 267
Wind_Speed
42 43 43 42 42 43 43 44 43 42 42 43 43 43 43 43 42 41 40 39 39 38 37 35 33 31 29 26 23 21 19 17 16 14 14 13 13 13 12 12 13 14 14 14 15 15 15 15 16 18 17 19 20 20 21 20 19 20 19 20 21 19 21 22 14 21 44 49 46 49 45 43 49 44 37 41 41 36 38 40 39 38 39 40 42
43 43 41 40 41 41 41 41 41 41 42 43 43 43 43 44 43 42 42 41 40 40 38 36 34 32 29 27 24 22 20 18 16 16 15 14 14 14 14 14 14 15 14 15 15 15 15 16 17 18 18 19 20 20 20 20 19 20 20 18 21 21 19 24 21 17 32 48 47 49 49 42 45 48 42 41 44 41 40 42 40 39 41 43 45
43 40 38 39 39 38 37 38 39 40 42 43 44 44 44 44 44 44 43 42 41 40 39 37 35 32 30 27 25 23 21 19 18 17 16 15 15 15 15 15 15 15 15 15 16 15 15 16 18 18 17 18 20 20 19 20 19 19 21 19 20 23 21 22 26 22 26 41 46 46 49 45 44 47 44 43 46 43 40 41 42 44 45 44 44
38 37 38 38 37 36 37 38 39 40 42 43 44 44 44 44 45 45 44 43 42 40 39 37 36 34 31 29 27 25 23 21 19 18 17 16 16 15 15 15 15 14 15 16 15 15 15 17 18 17 17 18 20 20 18 19 20 19 20 21 20 23 24 23 28 28 27 33 41 43 45 46 46 45 43 44 45 43 40 41 41 44 48 46 44
37 37 38 37 36 38 39 39 41 42 42 42 43 44 44 45 45 44 44 43 42 41 39 38 37 35 33 31 29 27 24 22 20 18 17 16 15 15 14 14 15 14 15 16 15 15 16 17 18 17 18 19 20 20 20 19 20 20 20 22 23 24 27 29 31 33 31 31 38 43 42 43 45 44 41 42 45 44 41 42 43 43 46 48 46
38 38 38 38 38 39 40 41 43 44 43 42 42 42 43 44 44 44 44 43 42 41 40 39 38 36 34 32 29 27 24 21 19 18 16 16 15 15 14 14 15 15 15 15 14 15 16 17 18 18 18 21 21 20 21 20 20 22 23 25 28 28 29 30 30 32 32 33 37 40 41 42 44 43 38 37 41 42 39 43 47 44 41 43 44
38 38 38 38 38 39 42 44 45 45 44 42 40 40 41 43 44 44 44 43 42 41 41 40 38 36 34 31 28 25 23 21 19 17 16 16 15 15 14 14 14 15 15 14 14 15 16 16 18 20 20 21 22 21 21 22 23 24 26 26 27 27 26 26 26 27 29 32 35 36 38 39 41 43 41 38 39 40 37 36 39 42 42 41 44
38 38 38 38 39 41 42 42 42 43 42 40 39 40 40 41 42 43 43 42 42 42 41 39 37 34 32 30 27 25 22 20 19 18 17 16 15 15 14 14 14 14 14 14 15 15 16 17 18 20 20 20 21 22 21 22 23 22 23 24 24 25 25 25 26 27 28 30 32 33 33 33 36 41 41 37 34 35 35 33 34 42 46 46 47
37 37 37 39 40 40 39 38 38 39 39 39 39 40 40 41 41 41 42 41 41 40 40 38 36 34 31 28 26 24 22 21 19 17 17 16 15 15 14 13 13 14 14 14 15 14 14 16 17 18 19 19 20 21 21 22 22 23 23 23 24 25 25 25 26 27 27 27 27 28 27 27 29 32 32 31 30 32 36 36 36 40 44 46 47
36 36 38 40 39 37 37 36 36 37 38 39 39 40 40 41 41 41 41 41 40 39 38 36 35 34 31 29 27 24 23 20 18 17 16 15 15 14 13 12 12 13 13 12 12 12 12 14 16 16 17 19 19 21 22 23 24 26 26 26 26 27 27 27 26 26 25 23 22 22 20 21 26 28 27 31 33 33 35 35 33 35 36 35 37
36 37 38 38 36 35 36 36 36 37 38 39 39 40 40 41 41 41 40 40 39 38 38 36 35 34 32 30 28 25 23 20 18 17 16 15 14 13 11 12 12 12 12 11 11 12 13 13 14 15 17 18 20 21 22 23 24 26 27 28 29 30 31 31 30 31 29 25 25 24 20 22 31 34 33 35 36 34 36 37 33 31 27 21 21
36 36 36 34 34 35 36 37 37 37 38 39 40 40 41 41 41 41 40 40 40 39 38 37 36 34 32 29 27 25 22 20 19 18 17 16 14 13 12 12 12 11 11 11 12 12 13 12 13 15 16 17 19 21 22 23 24 26 27 29 30 31 32 34 34 35 33 29 28 29 26 28 34 38 35 34 37 38 38 38 35 32 28 20 19
34 33 32 33 35 36 37 37 38 38 39 40 40 41 42 42 42 42 42 41 40 39 38 37 35 33 31 29 27 24 22 21 20 20 18 16 15 14 14 13 12 11 11 11 13 13 12 13 14 15 17 17 19 21 23 24 26 26 28 30 31 33 33 34 36 37 38 36 33 34 37 36 36 41 42 37 38 40 37 36 37 35 32 29 32
32 31 32 34 36 37 37 38 39 39 39 40 41 42 42 42 42 42 41 40 40 39 37 36 35 33 31 29 27 25 23 22 21 20 18 16 15 15 15 14 12 11 12 12 12 13 13 14 15 16 17 18 19 21 23 25 26 28 30 31 32 32 32 33 36 38 39 40 39 41 46 45 43 50 54 47 43 44 40 41 42 38 38 43 50
31 31 32 34 36 37 38 39 39 39 39 40 41 42 42 42 41 41 41 41 40 39 38 36 35 33 31 29 27 25 23 22 21 20 18 15 14 14 14 13 12 12 12 12 12 13 14 15 16 17 18 19 20 20 22 25 27 29 30 30 32 33 34 35 36 37 38 39 40 42 46 47 47 51 52 47 45 46 46 48 50 48 47 48 50
29 31 32 35 37 39 40 39 38 39 40 40 41 41 41 41 41 41 39 38 37 36 35 35 34 33 30 29 27 25 24 22 21 20 18 15 14 14 13 12 12 13 12 11 11 13 14 15 16 17 18 19 20 21 22 25 27 29 31 33 36 37 37 35 34 35 37 37 39 41 42 45 47 48 49 47 45 46 47 47 48 44 37 30 30
29 32 34 36 38 39 40 40 39 39 40 40 40 40 40 40 40 40 39 37 35 35 35 35 34 33 32 30 28 26 25 23 22 21 19 16 14 14 14 13 12 12 11 10 11 13 15 16 16 17 18 19 20 21 22 24 26 29 33 36 37 36 36 35 32 32 34 35 38 41 42 45 45 46 48 48 46 47 44 39 37 32 22 14 13
30 33 35 37 39 39 40 40 39 39 40 41 40 39 39 40 40 41 40 39 37 37 37 36 34 33 32 31 29 27 26 24 22 21 19 17 15 14 13 12 12 11 11 11 12 13 15 15 15 16 18 19 20 20 21 23 27 30 31 33 33 32 33 33 32 33 35 35 37 37 38 39 40 43 47 48 47 47 43 39 39 33 21 13 11
34 37 38 37 38 39 39 40 41 41 41 41 40 40 39 39 40 40 39 40 39 38 37 36 35 33 32 30 28 26 25 24 23 21 19 17 15 14 13 12 11 12 11 12 13 14 13 13 13 15 17 18 19 19 21 23 27 29 29 29 30 31 32 32 33 35 36 35 34 34 35 37 38 41 44 45 45 45 43 44 46 39 27 21 18
31 32 33 34 36 38 39 41 41 41 41 39 38 38 38 38 38 38 37 37 38 38 37 37 35 33 32 29 28 27 26 24 23 22 19 17 15 14 13 12 12 11 11 13 15 14 12 12 13 14 16 16 17 20 22 23 25 27 28 27 27 30 33 35 35 34 35 35 36 37 39 39 38 37 37 38 38 38 38 39 42 42 37 31 26
21 23 25 29 34 36 37 38 39 38 37 37 36 36 37 37 38 38 36 35 37 37 36 35 34 32 31 30 29 27 25 24 24 22 19 16 15 14 13 12 12 11 13 15 14 12 11 11 12 13 14 16 18 21 22 23 24 25 26 25 26 30 34 34 35 36 37 38 39 40 40 40 38 35 34 34 34 34 34 35 36 38 39 37 32
20 23 24 27 30 32 33 34 34 34 34 35 35 35 34 35 37 38 38 38 38 37 35 34 32 30 29 29 28 26 24 24 23 22 18 15 14 14 13 12 11 11 12 12 12 10 10 11 12 13 15 17 19 21 22 22 22 22 22 24 27 30 31 32 34 37 38 38 38 38 37 37 38 35 32 32 33 33 34 34 35 37 39 40 38
23 25 27 28 29 30 31 31 33 34 34 36 36 35 33 34 36 37 39 41 40 37 35 33 31 28 27 25 25 24 24 23 21 19 17 14 13 13 12 11 10 9 10 10 10 10 9 11 13 14 15 17 19 20 20 21 20 19 21 25 27 28 29 31 33 34 35 35 34 34 34 34 35 33 30 31 33 34 36 36 37 40 42 42 42
24 26 28 29 29 30 30 31 33 34 35 36 36 34 34 35 37 37 38 41 41 37 34 32 30 27 24 22 22 22 23 22 19 17 16 14 13 12 11 9 8 8 9 10 10 9 10 12 14 14 16 17 17 17 18 18 18 20 23 25 25 26 27 30 31 31 31 31 30 31 33 33 31 30 30 32 35 37 38 39 38 39 40 41 42
26 27 27 28 29 30 30 30 32 33 36 37 37 35 35 36 36 35 36 41 42 38 34 32 31 29 24 21 21 22 21 21 19 17 15 14 13 12 10 9 8 8 9 10 11 11 11 12 13 14 15 15 15 15 16 17 18 21 23 24 24 26 27 28 29 29 28 28 28 30 32 32 31 31 34 36 37 37 38 38 37 37 37 38 40
26 27 27 28 30 30 30 29 30 32 35 36 37 36 37 38 37 34 36 40 39 37 35 33 31 30 26 22 23 23 20 20 21 19 16 15 14 12 10 8 7 7 8 8 9 10 11 12 14 13 13 13 13 14 16 18 19 20 22 23 24 26 26 27 27 27 26 27 28 29 30 31 33 35 36 36 35 35 35 35 35 34 33 33 34
25 26 27 28 29 31 32 30 30 32 34 34 34 35 37 40 40 39 41 41 35 32 35 36 33 30 26 23 24 24 21 21 21 20 19 18 15 14 11 8 8 8 8 8 9 10 12 14 13 11 11 12 13 14 17 18 20 22 23 24 24 25 25 25 25 26 26 28 28 29 31 33 35 35 35 34 33 33 33 33 33 33 33 32 30
25 26 28 29 30 31 32 32 33 34 34 34 35 37 38 40 44 46 47 46 40 33 34 36 36 33 29 25 24 22 20 21 23 21 21 20 17 16 13 10 9 10 9 7 8 10 12 12 10 9 11 14 17 19 21 21 22 23 24 25 25 25 25 25 25 25 26 28 29 31 32 33 34 34 33 33 32 33 33 33 33 33 33 29 24
24 25 27 28 28 29 30 32 33 33 33 32 34 37 40 44 48 48 44 44 43 39 36 38 38 35 33 32 30 26 22 24 24 22 20 18 17 16 14 11 11 11 7 6 7 9 9 7 8 10 14 16 19 21 22 23 23 24 24 25 26 26 26 25 25 26 28 28 29 31 32 32 32 32 32 32 33 34 34 32 31 32 31 27 22
21 22 24 25 26 28 29 30 31 32 32 30 30 31 32 37 44 45 40 37 37 36 36 40 40 38 35 33 31 30 30 28 24 20 17 16 14 13 12 11 10 9 7 5 6 6 4 5 9 11 13 15 17 19 21 22 23 24 25 25 26 27 26 25 26 27 29 29 29 31 31 31 31 30 31 31 33 34 34 32 31 30 28 25 21
19 20 23 25 28 30 29 30 31 32 31 31 31 29 26 26 31 33 31 28 27 26 28 32 35 36 36 32 27 26 27 25 21 18 16 15 13 11 11 10 10 9 7 6 5 2 3 6 9 11 12 14 16 18 20 21 22 24 25 26 26 26 26 27 28 29 29 30 30 30 31 31 30 30 31 31 32 33 33 32 30 28 27 24 21
21 22 25 26 28 30 29 29 31 31 29 30 31 30 28 24 22 22 21 21 21 20 21 24 26 28 30 30 28 26 23 20 19 18 17 15 13 12 11 11 10 9 7 5 3 1 3 5 8 10 12 15 17 18 21 21 22 23 24 25 26 26 27 28 30 30 30 30 30 30 31 31 30 30 31 32 31 31 31 31 29 27 26 25 24
27 25 25 26 26 28 28 28 29 31 31 31 31 31 30 26 22 21 22 22 21 21 21 23 24 23 23 25 26 24 21 19 18 18 17 15 13 12 12 11 10 8 6 4 2 2 3 5 7 10 12 14 17 20 21 22 22 23 23 23 26 29 30 31 31 31 30 30 30 31 32 32 31 31 32 32 31 29 28 29 29 27 25 22 21
30 27 27 28 27 28 29 31 32 30 30 31 32 32 31 28 27 27 26 23 22 22 23 23 23 23 22 22 21 21 20 19 19 18 16 15 13 13 14 12 10 7 5 3 2 2 4 5 8 10 12 15 17 19 21 23 23 23 24 24 26 29 31 31 30 30 30 30 30 31 32 32 31 31 31 31 30 28 27 27 27 25 23 20 19
30 27 27 29 29 28 30 34 33 29 28 31 32 30 29 30 30 30 27 24 23 24 25 25 26 24 23 22 21 21 20 19 19 17 16 15 14 14 15 13 10 7 5 3 1 1 4 6 8 11 13 16 18 19 21 23 23 23 25 26 27 28 30 30 30 29 30 30 31 32 33 32 32 31 31 30 29 27 26 27 26 25 24 22 20
29 27 27 30 31 29 29 32 32 30 29 31 31 29 28 29 29 28 27 27 26 25 26 28 29 26 24 22 22 21 20 19 19 17 15 15 14 13 14 13 11 8 6 3 1 2 4 6 9 11 13 15 17 19 20 22 23 24 25 26 27 29 30 30 29 30 31 31 32 33 33 32 32 33 31 30 30 28 27 27 28 26 25 24 23
30 28 28 30 31 28 27 29 30 30 30 30 28 27 26 27 27 26 26 26 25 25 27 30 30 28 25 24 23 22 21 19 18 16 14 15 14 12 12 12 10 8 6 3 1 3 4 6 9 11 13 15 17 19 20 22 23 24 25 26 27 29 29 29 30 31 32 32 32 33 33 32 33 34 32 30 30 29 28 28 28 26 26 28 26
32 30 30 31 30 29 28 28 29 29 30 29 28 27 26 26 26 26 25 26 27 27 27 29 29 28 27 26 25 25 24 22 21 18 15 14 13 12 11 10 8 6 5 2 1 3 5 7 9 12 14 15 17 19 21 22 23 24 25 26 27 28 29 29 31 32 32 32 32 32 32 32 34 35 33 30 30 30 29 29 27 26 26 26 22
29 29 29 31 31 30 29 29 29 30 30 28 27 27 27 26 25 25 25 25 26 26 26 26 25 26 29 29 28 28 27 24 22 20 16 14 13 12 10 9 7 6 4 2 1 3 6 8 9 12 13 15 17 19 20 22 23 24 25 26 26 28 29 29 30 31 32 32 33 32 31 31 35 37 35 31 31 31 31 30 29 27 24 21 20
27 26 28 31 30 29 29 30 30 30 29 29 28 27 27 27 26 26 26 26 25 25 25 25 24 27 31 33 32 31 28 25 23 21 18 16 14 12 10 8 7 5 3 1 1 3 6 8 9 11 13 15 17 19 20 21 23 23 24 25 25 27 29 30 31 32 32 33 33 32 31 33 37 37 35 33 32 32 32 31 30 28 25 23 23
26 24 26 29 29 28 28 29 29 29 29 29 28 28 27 27 27 27 27 27 26 25 25 25 25 29 33 34 32 31 29 26 24 22 19 17 15 13 11 9 7 5 3 1 1 3 6 8 9 11 13 15 16 18 19 21 22 23 24 25 25 27 29 30 32 33 34 34 34 32 32 35 38 36 34 35 35 34 32 31 30 29 27 26 27
26 25 26 28 29 29 28 28 28 29 29 28 28 29 29 29 28 28 27 26 26 26 24 24 25 29 30 29 27 26 26 26 24 22 19 17 15 13 12 10 7 5 3 1 1 4 6 8 10 11 13 15 16 18 19 21 22 23 24 25 26 28 30 31 33 34 34 35 34 32 33 38 39 37 35 36 35 34 33 31 30 29 28 27 27
27 26 26 28 29 29 28 28 29 29 28 27 28 29 31 30 29 29 28 27 27 27 25 25 27 29 27 24 23 24 25 25 23 21 19 18 15 13 11 9 7 5 3 1 1 4 6 8 10 12 13 14 16 17 19 20 22 23 24 25 27 29 30 32 33 35 36 37 36 34 35 39 40 39 37 37 36 35 34 32 30 30 29 29 29
26 26 26 27 27 27 27 29 29 28 28 29 29 30 31 30 29 29 28 27 27 27 27 28 30 29 26 24 25 26 25 23 22 20 19 17 15 13 11 9 6 5 3 2 1 3 6 8 10 12 13 14 14 15 17 19 21 22 23 25 27 29 31 32 34 36 39 40 37 34 36 40 41 38 38 38 37 35 33 32 31 30 30 29 27
26 26 26 26 26 26 26 27 28 28 28 29 28 27 28 28 28 28 28 27 27 27 28 29 30 28 25 25 26 25 23 22 21 20 18 17 15 12 10 8 6 5 3 2 1 3 5 7 9 12 13 14 14 14 16 17 19 21 23 24 26 28 31 33 36 39 41 39 35 33 37 40 40 38 38 38 37 35 33 32 32 30 29 28 25
26 26 26 26 26 26 26 27 28 28 28 27 26 26 28 29 28 28 28 28 28 28 28 29 29 27 25 25 25 24 23 22 20 19 18 16 13 11 9 7 5 4 2 1 2 4 5 7 9 11 14 15 15 15 15 17 19 21 22 23 25 28 30 34 37 41 41 37 33 35 39 40 39 39 40 39 38 36 34 33 33 31 29 28 27
27 27 27 26 26 26 27 27 28 28 27 27 26 27 29 30 29 28 27 28 29 29 29 29 28 26 25 25 25 24 23 21 20 18 17 14 12 10 8 6 4 3 2 1 2 4 5 7 9 11 13 15 16 15 16 18 19 21 23 24 25 28 31 35 39 40 38 35 34 37 39 39 38 40 40 39 38 37 35 34 34 32 29 29 30
26 26 26 27 27 26 26 26 27 28 27 26 26 27 28 28 27 27 28 28 28 28 28 27 26 25 25 25 24 23 22 20 18 17 15 13 11 9 7 5 4 2 1 0 2 4 5 7 9 11 13 15 15 16 17 18 20 22 24 25 25 28 32 36 38 38 36 35 36 38 38 38 38 40 40 39 38 37 36 34 34 33 30 29 30
25 26 26 26 26 25 26 26 27 27 27 29 30 29 28 27 27 28 28 27 27 27 27 27 26 25 25 24 23 21 20 18 17 15 13 11 10 7 6 4 3 1 0 1 3 4 6 7 9 11 13 15 15 16 17 18 20 23 25 26 27 29 31 35 37 37 36 36 38 38 38 38 38 39 40 39 38 38 37 35 35 34 32 29 29
23 25 25 25 24 24 26 28 29 29 31 34 34 32 29 29 29 29 29 29 28 27 27 26 25 25 24 23 22 20 19 17 15 14 12 10 8 6 5 3 2 0 1 3 4 6 7 9 11 12 13 15 15 15 17 18 20 23 25 27 28 29 31 34 36 36 35 37 38 37 36 37 39 40 40 40 39 39 38 37 36 35 33 30 29
24 24 25 24 25 26 28 31 33 34 34 35 35 33 31 31 30 29 29 29 28 27 26 25 25 24 23 22 21 19 17 16 14 13 11 9 7 6 4 3 1 0 2 4 6 7 9 10 12 13 14 15 15 16 17 18 20 22 25 28 30 30 30 33 35 35 35 37 37 36 35 37 38 39 40 40 39 39 39 38 36 35 33 31 30
Wind_Direction
214 216 216 215 212 209 208 207 205 205 204 205 205 205 205 205 204 203 201 200 200 199 199 200 202 203 204 205 208 210 213 214 216 220 223 224 227 229 232 234 242 250 255 260 262 264 269 272 276 277 277 277 276 275 274 273 273 271 267 266 265 259 259 262 262 280 285 286 289 292 297 301 301 302 304 303 303 305 304 302 299 296 293 291 290
214 216 216 215 215 211 207 205 204 203 203 203 203 204 204 204 203 201 200 199 199 199 200 201 202 204 204 206 208 210 212 213 216 219 219 220 223 227 230 234 241 247 252 258 262 265 270 272 275 278 278 276 275 274 274 274 273 273 269 263 262 259 253 259 265 273 284 287 290 293 297 299 298 300 303 302 301 303 302 299 296 293 291 290 289
215 215 215 216 216 213 207 204 203 203 202 202 202 202 202 202 201 200 199 198 199 200 201 201 202 202 204 205 207 209 210 212 215 217 216 218 221 225 229 234 240 247 252 258 262 266 271 274 276 279 279 277 274 273 274 275 274 271 269 264 262 263 257 255 262 266 276 285 288 292 296 297 296 297 301 300 299 300 298 295 293 292 291 289 288
215 213 214 215 214 211 208 203 202 203 203 203 202 201 200 200 199 199 199 198 198 199 201 202 201 201 202 204 205 207 209 210 212 213 215 217 220 225 229 235 241 248 255 259 263 268 272 274 278 280 278 275 274 275 275 276 276 272 271 269 264 264 262 254 254 259 266 277 282 285 290 294 293 294 299 301 299 297 294 293 292 291 290 289 287
213 212 213 212 211 210 207 203 201 203 204 204 203 201 199 198 198 198 198 198 198 198 199 200 201 201 202 203 205 206 207 208 209 210 213 216 220 226 230 236 244 249 254 259 263 268 271 274 277 278 277 274 273 275 276 277 277 274 272 272 269 264 262 258 254 254 256 264 274 280 283 288 291 291 294 297 297 295 293 292 291 289 289 289 287
211 211 210 209 208 208 206 203 202 202 203 204 203 201 198 197 197 197 198 198 197 198 199 199 201 202 202 203 204 204 205 207 208 208 211 215 219 226 230 237 244 248 254 259 264 268 270 273 276 276 274 273 274 275 277 279 278 276 274 272 270 265 259 256 252 248 250 256 265 273 276 280 286 288 289 290 290 291 293 294 293 290 286 287 287
209 209 208 207 207 207 206 206 203 201 202 202 201 200 198 197 196 196 198 198 197 198 198 199 201 201 202 202 202 203 203 204 207 207 209 214 218 224 231 236 243 249 255 260 263 267 270 273 275 275 274 272 274 276 278 279 277 274 271 267 264 259 253 251 249 246 249 254 260 266 269 271 278 281 283 286 286 286 288 291 292 292 289 287 286
206 206 206 206 207 208 208 208 205 201 199 199 198 198 197 197 197 197 197 198 199 199 199 199 199 200 200 201 200 202 202 203 205 204 206 213 217 222 228 234 242 249 255 260 265 269 273 276 275 274 273 272 274 276 275 274 272 267 264 262 259 257 252 250 250 250 252 256 259 263 264 267 272 274 278 282 281 281 283 282 284 288 289 288 285
204 203 203 206 208 208 207 206 205 201 196 195 196 196 196 196 196 196 197 198 199 200 200 199 198 197 197 198 199 200 202 204 203 203 206 211 214 219 226 232 238 247 254 261 268 271 272 274 273 271 272 271 271 272 272 271 270 270 271 271 268 265 262 258 255 254 255 256 257 260 261 263 266 268 271 272 272 277 281 279 280 283 285 286 285
202 201 203 207 207 205 203 203 202 199 195 193 194 193 194 194 195 196 197 197 198 198 198 198 198 197 196 195 197 199 201 202 199 201 206 207 210 215 220 229 236 245 254 258 262 266 265 266 269 269 269 270 271 272 274 274 274 274 276 277 276 277 277 274 271 268 264 260 259 259 257 261 265 265 267 272 275 280 280 280 282 283 284 286 285
201 202 205 206 203 201 200 199 198 197 195 193 192 192 192 193 193 194 195 196 197 197 197 197 197 198 197 195 196 198 199 197 194 197 202 203 209 214 216 229 237 241 247 251 256 263 265 265 269 271 270 272 273 274 276 276 276 277 277 278 278 279 280 281 281 279 275 271 271 268 262 266 274 274 274 278 280 280 280 280 280 280 282 283 285
201 203 204 202 198 198 197 195 195 195 193 192 191 191 191 191 191 192 193 194 195 195 196 197 196 196 196 195 196 197 196 192 189 194 196 196 204 215 221 227 231 233 239 248 258 264 268 269 271 272 273 274 275 277 279 280 280 280 280 279 280 279 279 279 281 281 280 278 278 276 271 272 278 277 276 279 280 279 279 278 275 274 276 275 277
201 201 200 197 196 196 195 193 193 193 192 191 190 189 189 190 190 191 192 193 193 193 194 195 195 194 194 194 195 195 191 187 188 191 191 190 195 207 218 220 222 231 240 248 257 261 265 271 272 273 275 276 279 281 282 282 282 282 282 281 281 280 280 279 279 281 282 282 282 280 279 279 280 279 279 281 281 279 278 276 274 272 270 269 272
198 198 196 195 195 194 193 192 192 192 191 189 188 188 188 189 190 190 191 191 190 191 192 193 193 194 194 194 194 193 188 185 188 189 187 191 193 198 211 219 224 234 240 246 255 260 264 269 271 274 276 278 281 283 283 284 285 284 284 282 281 281 282 282 282 281 280 279 277 275 277 277 275 277 280 279 275 273 273 272 272 269 266 267 270
195 195 193 194 194 193 192 192 191 190 189 188 187 187 188 188 188 189 190 190 190 191 191 192 193 192 193 193 193 191 187 184 186 187 186 188 191 196 208 218 223 231 238 246 256 262 264 266 269 273 277 279 281 284 286 288 288 288 288 288 287 286 285 283 283 282 280 276 273 272 274 275 274 275 278 277 272 270 270 270 270 269 268 269 269
192 192 193 194 194 192 191 190 189 188 187 186 186 187 187 187 187 187 188 188 189 189 190 191 191 191 190 192 192 189 185 183 185 187 185 184 187 195 204 211 220 231 241 251 258 260 263 266 268 272 277 280 283 286 289 292 294 294 294 292 291 289 287 287 287 287 286 283 281 281 281 282 281 281 282 282 280 279 279 276 272 268 265 266 267
192 193 195 195 194 193 191 189 188 187 186 186 186 187 187 186 187 186 185 185 186 188 189 190 190 190 189 190 191 188 183 183 186 186 184 182 184 192 202 210 220 232 243 253 258 260 263 264 267 273 279 282 284 288 293 296 297 296 293 293 292 292 293 295 296 294 292 290 288 287 287 286 286 287 287 286 286 288 289 285 278 272 265 258 264
195 195 198 197 194 193 191 189 188 186 187 188 188 187 187 186 187 187 186 186 187 188 189 189 189 191 191 190 190 187 182 183 187 185 181 180 183 191 200 208 219 233 245 253 259 263 264 265 269 275 279 282 285 290 297 299 298 296 296 297 298 298 299 302 302 299 298 296 293 291 291 291 291 291 290 288 287 287 285 281 279 278 273 262 268
199 198 200 197 193 192 191 190 189 188 189 190 188 187 187 187 187 188 188 189 188 187 187 186 186 189 191 189 188 186 183 183 186 184 178 177 183 190 197 206 220 233 244 255 261 262 264 269 274 277 279 283 288 293 298 301 301 301 303 303 302 300 302 304 303 301 304 305 304 302 300 299 297 295 291 289 287 284 278 273 273 272 268 263 266
204 202 198 193 191 192 191 191 191 191 190 189 188 187 187 187 186 187 188 188 186 184 183 183 184 186 187 186 186 186 185 183 182 179 176 177 182 188 197 209 221 233 247 257 259 260 267 276 277 278 281 286 292 297 301 303 304 305 305 303 301 300 303 305 305 307 310 310 308 306 305 304 303 300 296 292 291 287 281 276 271 266 261 260 259
206 202 196 192 191 191 192 192 192 191 190 187 186 187 187 187 187 186 184 183 181 179 179 179 180 182 183 184 186 187 185 182 179 175 174 177 181 186 198 209 220 240 253 257 258 262 273 279 276 278 285 291 297 302 304 305 306 306 304 300 299 301 305 308 309 311 312 310 308 308 308 308 307 304 299 294 292 292 291 287 281 273 266 259 255
199 195 193 192 192 191 192 192 191 189 188 185 184 186 187 188 188 185 182 180 177 175 175 176 176 178 181 184 186 184 179 176 174 172 173 178 181 185 198 208 220 243 253 256 264 270 274 276 277 281 289 296 302 304 305 306 307 305 302 302 303 306 308 310 310 311 311 311 311 309 307 307 306 304 299 294 292 293 294 293 292 290 285 277 268
194 190 190 190 191 191 191 191 189 187 186 185 184 184 185 187 186 183 180 177 174 172 173 174 173 174 178 181 182 179 173 171 172 172 173 178 182 186 197 207 219 237 251 260 267 269 271 273 276 285 295 301 304 304 305 308 308 305 304 306 309 310 311 310 310 311 310 309 308 305 304 304 304 302 298 295 295 296 295 294 294 293 293 290 283
188 187 187 187 189 190 189 190 189 187 185 185 183 182 183 184 183 182 180 177 173 170 171 172 171 171 172 174 175 175 172 171 172 174 174 176 180 188 198 207 217 233 248 258 262 265 271 274 280 293 301 303 303 305 307 309 309 308 309 311 313 314 314 312 310 309 306 304 303 301 302 304 303 300 299 300 300 299 296 294 294 292 291 291 288
184 184 184 184 185 186 187 188 188 187 186 185 183 181 180 180 180 182 180 177 172 168 168 171 172 169 168 169 170 172 173 172 173 174 175 177 181 187 194 201 216 235 245 255 265 269 272 280 291 300 302 303 306 309 311 312 311 310 311 314 315 315 314 311 308 306 303 301 301 300 301 303 302 300 301 302 302 301 298 295 294 293 292 292 290
181 180 180 182 183 182 183 184 186 187 187 186 186 184 181 179 180 182 180 176 172 169 169 171 170 169 168 167 167 168 172 178 180 178 177 180 182 183 187 195 215 234 243 253 265 269 271 282 294 297 298 304 307 308 310 311 311 312 313 315 315 314 313 310 307 305 303 301 302 302 301 302 302 300 301 302 301 301 301 299 297 296 296 296 294
181 179 179 180 180 181 181 182 183 185 186 187 188 187 184 183 181 179 177 175 172 170 170 169 168 168 166 162 164 168 173 179 180 176 175 176 175 176 184 196 210 223 238 251 257 261 269 279 288 295 306 315 319 321 322 320 319 318 318 317 316 314 312 309 305 303 302 301 301 301 301 302 302 300 301 302 301 301 302 301 299 298 299 298 294
185 183 182 180 180 182 182 181 182 184 185 188 188 186 185 185 182 181 181 179 175 172 172 171 171 168 164 161 163 166 174 182 181 175 174 174 172 176 186 195 204 214 229 242 245 255 269 281 294 315 330 335 336 336 334 329 324 321 319 319 318 315 312 309 306 303 302 300 300 301 302 303 302 300 301 302 302 303 304 302 299 297 297 297 292
188 185 183 181 181 182 182 182 184 184 185 188 189 189 189 187 185 184 184 183 181 179 178 177 175 171 167 166 165 167 177 184 179 172 171 173 174 180 185 189 199 208 217 225 235 254 276 297 324 339 343 341 339 335 332 328 323 321 321 321 319 317 314 312 309 307 307 305 303 303 303 303 302 302 303 304 303 304 304 302 300 298 296 294 288
187 186 184 183 183 181 181 183 184 184 184 184 184 187 190 190 188 186 185 187 189 189 187 184 180 175 170 169 172 176 177 174 169 169 173 176 177 178 178 181 186 188 188 202 230 258 298 333 342 344 342 337 333 329 325 323 320 319 321 321 318 317 315 313 311 311 310 309 306 305 305 304 303 304 305 305 305 305 305 303 301 299 295 291 288
186 189 189 190 187 183 182 183 182 184 184 181 178 178 179 185 190 190 188 189 192 193 190 185 180 176 172 168 169 171 167 162 165 175 178 175 172 169 168 169 166 164 171 193 214 256 354 348 341 341 339 334 329 323 319 318 317 317 318 318 317 316 315 314 314 314 313 310 308 307 307 305 304 305 307 307 305 305 305 305 302 299 294 289 287
192 195 196 195 191 187 186 183 181 182 180 177 176 175 172 174 182 188 189 187 182 179 176 171 169 170 169 163 157 156 157 161 169 173 171 168 167 164 162 159 153 158 173 183 174 93 13 345 335 338 338 331 325 320 318 317 316 315 314 313 313 315 315 315 316 316 313 311 309 309 309 307 306 307 308 308 306 304 304 305 304 300 296 291 287
202 200 197 193 191 190 188 185 184 183 180 176 176 176 174 172 169 168 171 172 168 162 159 157 156 156 157 156 152 152 158 164 166 165 166 166 163 159 156 149 146 164 183 171 127 61 6 344 334 335 333 325 321 321 319 316 313 313 311 309 311 314 315 316 317 316 314 312 311 311 310 308 307 310 310 309 307 304 303 304 303 300 298 293 289
209 205 199 193 190 192 193 190 187 185 182 179 178 178 178 174 165 159 160 161 159 155 153 152 151 150 152 155 155 157 160 163 163 165 165 161 157 159 159 153 153 170 183 161 114 27 356 342 335 334 329 324 323 321 316 313 313 312 312 311 312 313 314 316 318 317 315 314 314 313 312 310 310 312 313 310 308 305 302 302 302 301 298 294 291
211 208 203 196 194 196 196 192 187 184 182 181 180 178 175 171 166 163 161 157 153 151 151 152 153 152 153 156 160 161 162 162 163 164 161 158 163 170 172 171 176 182 181 165 151 345 344 337 333 334 329 323 321 317 312 312 314 313 313 314 312 312 314 316 317 317 316 316 315 314 312 312 313 314 313 310 308 306 304 303 302 300 296 294 291
207 205 201 198 197 198 195 191 188 186 184 181 180 176 172 170 168 164 160 155 151 147 148 150 152 151 152 157 160 161 161 162 162 160 158 164 176 183 182 181 183 185 184 185 230 310 335 338 336 333 326 318 316 315 313 314 315 315 316 314 312 313 315 316 317 318 317 316 315 314 313 314 316 317 316 312 308 306 304 303 302 298 295 294 293
204 201 198 197 196 194 190 187 187 186 182 178 176 173 170 169 167 161 156 152 148 144 144 145 145 145 149 157 161 161 161 160 156 153 160 175 184 189 188 185 182 184 188 194 251 315 342 349 341 332 325 319 319 320 319 317 317 317 316 315 314 314 315 316 317 317 316 314 314 313 313 315 318 320 318 313 309 308 306 304 302 299 296 295 293
205 203 199 194 190 185 183 182 181 180 178 176 175 171 167 166 164 158 152 149 146 144 146 147 147 147 149 155 159 159 157 155 153 156 167 179 181 181 181 180 177 178 185 197 288 334 351 353 341 333 331 330 329 328 324 321 320 318 317 317 317 317 317 317 317 318 316 314 313 312 312 316 321 323 320 314 311 309 307 306 304 302 299 296 291
205 204 198 190 184 181 179 176 175 175 175 174 173 169 165 162 160 155 150 148 148 149 150 150 151 153 154 154 156 157 157 158 164 169 173 175 176 176 174 172 170 172 179 189 352 352 351 347 341 338 339 337 334 331 327 324 322 322 321 320 320 320 319 319 318 318 317 315 313 312 313 317 322 323 320 315 312 310 308 307 306 302 299 294 288
201 196 190 185 181 178 175 173 173 174 174 172 170 167 164 162 158 154 151 150 151 154 155 155 156 160 162 162 162 164 166 168 173 176 175 173 174 173 168 168 172 174 173 153 27 357 343 343 343 341 341 339 335 331 330 328 326 326 326 324 321 320 320 319 318 318 317 316 314 312 314 319 323 324 321 317 314 312 309 308 306 302 298 293 290
192 184 181 179 176 172 172 173 174 174 172 170 168 165 162 160 157 153 153 154 155 157 158 159 160 165 169 171 172 175 178 177 175 175 176 174 172 170 167 170 174 170 162 126 14 350 339 342 345 341 340 339 335 332 332 332 331 330 329 327 324 321 320 320 319 318 317 317 315 313 317 322 324 323 320 317 316 313 311 309 306 304 302 298 294
181 175 174 173 170 169 170 171 171 170 168 167 165 162 159 157 155 154 153 155 155 155 155 156 160 165 170 173 176 180 182 179 174 173 173 171 169 168 167 168 168 164 162 163 350 345 341 344 345 341 338 336 335 334 334 335 336 335 332 328 325 322 320 320 320 319 319 318 316 315 320 325 326 323 320 318 317 315 313 312 309 307 306 303 298
177 172 170 169 169 169 168 166 165 164 164 164 162 159 157 156 155 155 153 153 154 154 152 153 157 161 164 169 174 178 178 174 170 170 170 168 167 167 164 164 166 167 167 183 331 342 343 343 342 338 336 336 336 337 337 339 339 337 332 328 325 323 321 320 320 320 321 320 317 318 324 327 327 325 322 321 319 317 315 314 313 310 309 307 304
170 166 164 164 164 164 163 162 161 160 160 159 157 156 156 156 154 153 151 150 151 152 151 152 155 158 160 165 170 173 171 168 167 168 169 167 165 164 162 163 167 173 180 201 302 339 339 337 336 335 336 338 339 340 343 345 344 340 335 330 325 322 321 320 320 322 322 319 317 321 327 328 327 325 323 322 321 319 317 316 315 313 310 308 306
164 160 158 156 156 156 156 157 156 155 154 153 153 154 155 153 150 148 147 146 147 149 151 153 156 158 159 163 167 168 166 165 166 168 167 165 164 162 163 167 174 181 190 211 292 325 327 327 330 334 337 341 342 343 347 350 350 347 342 335 327 323 323 322 322 323 323 320 320 325 328 328 327 325 324 324 322 320 319 318 318 316 312 308 304
158 155 153 151 151 151 151 151 152 152 151 151 151 150 149 147 145 145 145 145 147 149 152 155 158 160 162 163 164 164 164 164 166 167 166 164 162 162 166 173 180 186 197 234 295 312 317 321 327 334 340 344 344 345 348 351 352 351 348 343 336 331 328 326 326 326 325 324 326 329 329 328 327 326 325 324 323 322 321 320 320 318 314 309 306
151 149 149 148 147 147 148 149 149 149 147 147 145 143 142 141 141 141 143 146 149 151 154 158 161 163 163 162 162 162 163 164 165 165 163 162 162 165 171 178 179 181 194 271 313 315 316 322 330 339 345 347 346 345 348 351 352 352 351 348 343 338 335 333 332 330 328 329 331 331 329 328 327 327 327 326 325 324 324 323 323 321 316 312 311
145 144 144 144 144 144 145 145 144 143 142 141 140 139 138 138 138 140 143 146 149 152 155 159 161 162 161 160 160 161 162 163 163 163 162 162 163 167 173 178 175 170 163 360 338 328 327 332 340 346 349 349 346 345 346 349 351 353 352 350 346 343 342 339 335 332 333 335 334 333 331 330 329 329 329 329 327 327 326 326 326 324 319 314 314
139 139 140 141 142 142 143 143 142 141 139 138 138 137 137 137 139 141 144 146 149 153 156 159 160 160 159 158 158 160 160 161 162 162 161 162 166 169 174 175 170 152 65 9 345 338 339 343 347 350 351 350 346 345 346 349 351 352 352 351 348 346 343 340 337 336 338 339 336 334 333 333 332 332 332 331 330 330 329 328 328 327 323 318 318
132 134 135 135 135 137 139 139 138 137 137 137 137 136 136 137 139 142 145 147 149 153 156 158 159 159 159 158 159 159 159 160 161 160 160 163 168 173 176 174 166 105 357 349 341 337 340 346 349 352 352 350 346 345 346 349 351 352 352 352 350 344 340 338 339 340 342 341 338 335 335 335 335 335 335 334 333 333 332 330 331 331 329 325 323
121 125 127 128 129 132 133 132 131 133 135 136 136 136 137 138 140 143 146 149 151 153 156 158 158 159 159 158 158 157 158 159 160 160 162 167 172 177 182 184 180 330 338 339 336 334 339 344 347 350 351 348 345 345 345 347 351 354 353 352 349 344 339 339 341 342 343 342 339 336 336 337 337 338 338 337 336 335 333 333 333 334 332 330 326